Flag for U.S.A. Weather past 2 weeks in Oberlin, Ohio, U.S.A.

Now
16 °F

Passing clouds.


Feels Like: 4 °F
Forecast: 15 / 27 °F
Wind: 9 mph from Northeast

Location: Lorain County Regional Airport

Current Time: Mar 28, 2015 at 1:55:38 AM

Latest Report: Mar 28, 2015 at 12:53 AM


Visibility: 10 mi

Pressure: 30.16 "Hg

Humidity: 71%

Dew point: 8 °F

Location of OberlinLocation

Historic Weather in Oberlin — Graph

°F

Oberlin temperature yesterday

Maximum temperature yesterday: 35 °F (at 12:53 AM)
Minimum temperature yesterday: 19 °F (at 11:53 PM)
Average temperature yesterday: 26 °F

Past Weeks' High & Low Weather Summary

 TemperatureHumidityPressure
High60 °F (Mar 16, 3:53 PM)100% (Mar 13, 8:53 PM)30.50 "Hg (Mar 13, 8:53 PM)
Low19 °F (Mar 27, 11:53 PM)36% (Mar 17, 5:53 PM)29.72 "Hg (Mar 17, 1:53 AM)
Average36 °F71%30.12 "Hg
* Reported Mar 12 11:53 PM — Mar 27 11:53 PM, Oberlin, Weather by CustomWeather, © 2015

Note: Actual official high and low records may vary slightly from our data, if they occured in-between our weather recording intervals... More about our weather records

Advertising

Oberlin weather history for previous 24 hours

 ConditionsComfort  
Time TempWeatherWind HumidityBarometerVisibility
11:53 PM
Fri, Mar 27
19 °FPartly cloudy.12 mph68%30.15 "Hg10 mi
10:53 PM20 °FMostly cloudy.12 mph68%30.14 "Hg10 mi
9:53 PM20 °FMostly cloudy.15 mph71%30.12 "Hg9 mi
8:53 PM21 °FLight snow. Mostly cloudy.14 mph78%30.10 "Hg3 mi
7:53 PM21 °FLight snow. More clouds than sun.13 mph81%30.07 "Hg3 mi
6:53 PM22 °FSnow. Ice fog.14 mph85%30.06 "Hg1 mi
5:53 PM23 °FLight snow. Ice fog.12 mph88%30.04 "Hg1 mi
5:03 PM24 °FLight snow. More clouds than sun.15 mph81%30.00 "Hg3 mi
4:53 PM25 °FLight snow. Mostly cloudy.15 mph78%30.02 "Hg2 mi
4:03 PM24 °FLight snow. Ice fog.14 mph84%29.99 "Hg1 mi
3:53 PM24 °FSnow. Ice fog.16 mph88%30.01 "Hg1 mi
3:00 PM25 °FLight snow. Ice fog.12 mph85%29.99 "Hg1 mi
1:53 PM25 °FLight snow. Cloudy.10 mph81%30.02 "Hg1 mi
12:53 PM24 °FLight snow. Mostly cloudy.12 mph77%30.02 "Hg3 mi
11:53 AM25 °FLight snow. Mostly cloudy.9 mph75%30.01 "Hg6 mi
10:53 AM24 °FLight snow. Overcast.14 mph77%30.01 "Hg6 mi
9:53 AM26 °FLight snow. Mostly cloudy.10 mph71%30.00 "Hg6 mi
8:53 AM26 °FLight snow. Overcast.14 mph77%29.99 "Hg3 mi
7:53 AM29 °FMostly cloudy.16 mph75%29.96 "Hg10 mi
6:53 AM30 °FOvercast.14 mph69%29.95 "Hg10 mi
5:53 AM30 °FLight snow. Mostly cloudy.10 mph89%29.94 "Hg9 mi
4:53 AM32 °FLight snow. Overcast.10 mph79%29.93 "Hg9 mi
3:53 AM33 °FOvercast.10 mph75%29.94 "Hg10 mi
2:53 AM34 °FOvercast.13 mph76%29.95 "Hg10 mi
1:53 AM34 °FOvercast.12 mph73%29.93 "Hg10 mi
Weather by CustomWeather, © 2015

See weather overviewHow to use our weather pages